User: anonymous   Login
Location: Caltech
(34.1382°N, 118.1253°W)
Time: 07:00:19
(UTC-08:00)
Language:

Cosmos 2251 Rocket - Orbit

View from above orbital plane
View from above orbital plane
View from above satellite
View from above satellite

Ground track
Ground track

The orbit data is extracted from the following two-line orbital elements,

1 22676U 93036B   14327.94336701  .00000284  00000-0  11156-3 0  3786
2 22676 074.0439 093.9026 0019468 347.0331 013.0317 14.33682771121157
Epoch (UTC): 23 November 2014 22:38:26
Eccentricity: 0.0019468
inclination: 74.0439°
perigee height: 765 km
apogee height: 793 km
right ascension of ascending node: 93.9026°
argument of perigee: 347.0331°
revolutions per day: 14.33682771
mean anomaly at epoch: 13.0317°
orbit number at epoch: 12115

The dashed part of the orbit path shows where the satellite is in the earth's shadow,  

DLR